Location: Newark
(54.1978°N, 18.3264°E)
Time: 18:11:33
(UTC+00:00)

OTV 5 (USA 277) - Pass Details

Date: 29 August 2019
Orbit: 310 x 324 km, 54.5° (Epoch: 08 October)

Event Time Altitude Azimuth Distance (km) Brightness Sun altitude
Rises 19:08:11 0° 252° (WSW) 2,038 ? -11.7°
Reaches altitude 10° 19:10:09 10° 251° (WSW) 1,209 ? -11.9°
Maximum altitude 19:12:49 74° 166° (SSE) 330 ? -12.2°
Enters shadow 19:14:33 19° 82° (E) 826 ? -12.4°
